Погода в Выборге

Хотите узнать прогноз погоды в Выборге? Тогда Вам сюда: Погода в Выборге

Поиск расширенной информации на нашем сайте:

Полезная информация:

Новости сайта



02.01.2020
Опубликован Долгосрочный прогноз погоды по городам России и ближнего зарубежья на январь 2020 года.
Карты: Прогноз на январь и февраль 2020 года, Сравнение прогнозируемой аномалии приземной температуры воздуха на январь 2020 года по разным моделям.




Погода в Выборге - сегодня

Время (UTC), дата Ветер
(°,м/с) 
Видим.   Явления Облачность Т
(°С)
Тd
(°С)
f(%) Тe
(°С)
Pmin
(гПа)
dP
(гПа)
Po
(мм)
O2
(г/м3)
Тmin Tmax R s Состояние
почвы
15 27.03.20 220 (ЮЗ) 7{10}  20000 м    10/0 средняя 
[As op]
+3.8 -1.4 69 +1  1028.4  -2.6  770  306           
18 27.03.20 240 (ЮЗ) 10 км    10/0 средняя 
[As op]
+4.2 -2.6 61 +2  1026.6  -1.8  769  305    +5       
21 27.03.20 230 (ЮЗ) 10 км    10/0 средняя 
[As op]
+3.4 -1 73 +1  1025  -1.6  768  306           
00 28.03.20 220 (ЮЗ) 10 км    ясно 
+1.7 -1.9 77 +1  1022.7  -2.3  766  307           
03 28.03.20 170 (Ю) 10 км    8/0 средняя 
[Ac trans]
+1.7 -1.7 78 +1  1019.8  -2.9  764  306  +1.1         
06 28.03.20 230 (ЮЗ) 10 км    10/0 средняя 
[Ac As]
+3 +0.1 81 +1  1017.6  -2.2  762  304  +1.1         
09 28.03.20 210 (ЮЗ) 8-10{10}  20000 м    4/1 600 м средняя 
[Cu med, cong|Ac trans]
+3.8 +0.4 78 1016.4  -1.2  761  302           
12 28.03.20 200 (Ю) 7{10}  20000 м    9/5 1000 м средняя 
[Cu med, cong|Ac trans]
+4.2 +1.1 80 +1  1015.6  -0.8  761  302           
15 28.03.20 180 (Ю) 20000 м    9/6 1500 м кучево-дожд., средняя 
[Cb cap|Ac trans]
+4.3 +1.8 84 +3  1014.5  -1.1  760  301           
18 28.03.20 350 (С) 10 км    9/3 1000 м кучево-дожд., средняя 
[Cb cap|Ac trans]
+5.8 -4 49 +5  1015.7  1.2  761  301    +6.2       
21 28.03.20 360 (С) 10 км    9/0 средняя 
[Ac trans]
+3.1 -7.3 46 +2  1017.4  1.7  762  304           
00 29.03.20 340 (С) 10 км    9/0 средняя 
[Ac trans]
+0.8 -10.2 44 1018.8  1.4  763  308           
03 29.03.20 340 (С) 10 км    9/0 средняя 
[Ac As]
-1.5 -10.6 50 -2  1019.8  764  310  -1.5         
06 29.03.20 350 (С) 20000 м    5/0 средняя 
[As trans]
-1.2 -9.6 53 -3  1020.3  0.5  764  310  -2.2         
09 29.03.20 020 (С) 20000 м    5/5 600 м 
[Cu med, cong]
+1 -12.2 37 -1  1020  -0.3  764  308           
12 29.03.20 020 (С) 20000 м    5/4 600 м верхняя 
[Cu med, cong|Ci fib]
+2.1 -15.3 26 +1  1019.2  -0.8  763  306           
15 29.03.20 360 (С) 20000 м    4/3 600 м верхняя 
[Cu med, cong|Ci fib]
+0.8 -15.9 27 1018.4  -0.8  763  308           
18 29.03.20 350 (С) 20000 м    3/0 средняя 
[Ac trans]
-1.7 -13.1 41 -1  1018.9  0.5  763  311    +2.6       
21 29.03.20 320 (СЗ) 20000 м    ясно 
-4.4 -10.4 63 -6  1019.1  0.1  763  314           
00 30.03.20 340 (С) 10 км    ясно 
-5.9 -10.7 69 -6  1019.3  0.2  763  315           
03 30.03.20 тихо ()   10 км    ясно 
-7 -10.3 77 -7  1019.4  0.1  763  317  -7.1         
06 30.03.20 010 (С) 20000 м    ясно 
-3.9 -8.8 69 -5  1020.7  1.3  764  313  -7.9         
09 30.03.20 010 (С) 20000 м    4/4 600 м кучево-дожд. 
[Cb cap]
+0.9 -12.4 36 -1  1021.5  0.9  765  308           
12 30.03.20 010 (С) 20000 м    8/8 1000 м кучево-дожд., средняя 
[Cb cap|Ac trans]
+1.1 -14.4 30 1021.9  0.4  765  308           
15 30.03.20 360 (С) 4{11}  20000 м  {ливн. осадки}  6/6 1380 м кучево-дожд. 
[Cb cap]
+0.5 -15.3 29 -2  1022.4  0.5  766  309      0.0     
Время (UTC), дата Ветер
(°,м/с) 
Видим.   Явления Облачность Т
(°С)
Тd
(°С)
f(%) Тe
(°С)
Pmin
(гПа)
dP
(гПа)
Po
(мм)
O2
(г/м3)
Тmin Tmax R s Состояние
почвы

Для получения пояснительной информации подведите курсор к названию столбца.

ПОГОДА в Выборге - архив

Всё, что Вы хотите узнать о погоде в Выборге - удобно и подробно!

Выберите нужную дату (начиная с 1 января 2019* года) и нажмите кнопку "Найти".
Будут отображены архивные сводки погоды по пункту Выборг, начиная с указанной даты.


Отображать данные в формате CSV (для использования в таблицах Excel)


Внимание! Наш архив погоды предназначен исключительно для личного некоммерческого использования в познавательных целях. Если Вам необходимы официальные справки о состоянии погоды (для производственных, юридических, коммерческих и т.п. целей), обращайтесь в органы Росгидромета.

*Примечание: данная дата относится к архиву по метеостанциям СССР (Россия, СНГ, Балтия).
Архив по метеостанциям Зарубежной Европы и Азии (кроме Китая) хранится 10 дней, по другим регионам земного шара (Китай, Африка, Америка, Австралия, Океания) - 1 день.

Выборг - район местоположения метеостанции


Название, широта, долгота, высота метеостанции:
Выборг 60.7°ш. 28.7°д. 13 м над ур. моря [Российская Федерация]

Дополнительная информация

В oтличие oт бoльшинства пoгoдных сайтoв мы публикуем пoдрoбную метеoинфoрмацию в детальнoм прoфессиoнальнoм фoрмате.

Характеристики температуры и влажнoсти вoздуха измеряются на высoте 2 м в тени вдали oт зданий и деревьев.
Скoрoсть ветра измеряется на высoте 10 м (на урoвне рoста челoвека скoрoсть ветра ниже в 1.5-2 раза). Если метеoстанция нахoдится в гoрoде или в лесу, тo скoрoсть ветра занижена на 2-4 м/с пo сравнению с oткрытым местoм. Скoрoсть ветра над акватoриями крупных рек и oзёр, а также на вершинах хoлмoв на 2-5 м/с выше, чем в oбычных услoвиях.
Атмoсфернoе давление в разных тoчках местнoсти мoжет значительнo oтличаться oт давления на метеoстанции, в зависимoсти oт услoвий рельефа (при пoдъёме на 10 м давление пoнижается примернo на 1 мм рт.ст.).